Home   Weather   Shiprock   Past weeks

Flag for USA Past Weather in Shiprock, New Mexico, USA — Yesterday and Last 2 Weeks

56 °F


Feels Like: 56 °F
Forecast: 43 / 71 °F
Wind: No wind

Location: Four Corners Regional Airport

Current Time: Oct 25, 2016 at 10:08:32 PM

Latest Report: Oct 25, 2016 at 8:53 PM

Visibility: 10 mi

Pressure: 30.19 "Hg (25.27 "Hg at 1492m altitude)

Humidity: 62%

Dew Point: 43 °F

Location of ShiprockLocation

Past Weather in Shiprock — Graph


Shiprock Temperature Yesterday

Maximum temperature yesterday: 73 °F (at 3:53 PM)
Minimum temperature yesterday: 42 °F (at 6:53 AM)
Average temperature yesterday: 57 °F

High & Low Weather Summary for the Past Weeks

High80 °F (Oct 15, 3:53 PM)96% (Oct 25, 6:53 AM)30.46 "Hg (Oct 25, 6:53 AM)
Low31 °F (Oct 20, 5:53 AM)7% (Oct 14, 2:53 PM)29.73 "Hg (Oct 17, 3:53 PM)
Average57 °F35%30.07 "Hg
* Reported Oct 10 8:53 PM — Oct 25 8:53 PM, Shiprock, Weather by CustomWeather, © 2016

Note: Actual official high and low records may vary slightly from our data, if they occured in-between our weather recording intervals... More about our weather records


Shiprock Weather History for the Previous 24 Hours

Scroll right to see more
Time TempWeatherWind HumidityBarometerVisibility
8:53 PM
Tue, Oct 25
56 °FClear.No wind62%30.19 "Hg10 mi
7:53 PM59 °FClear.No wind54%30.18 "Hg10 mi
6:53 PM60 °FClear.3 mph53%30.15 "Hg10 mi
5:53 PM65 °FSunny.10 mph42%30.12 "Hg10 mi
4:53 PM67 °FPassing clouds.8 mph42%30.11 "Hg10 mi
3:53 PM66 °FSunny.6 mph43%30.12 "Hg10 mi
2:53 PM66 °FPartly sunny.8 mph47%30.13 "Hg10 mi
1:53 PM64 °FMostly cloudy.7 mph50%30.14 "Hg10 mi
12:53 PM63 °FPartly sunny.3 mph60%30.16 "Hg10 mi
11:53 AM60 °FPartly sunny.No wind67%30.20 "Hg10 mi
10:53 AM57 °FScattered clouds.No wind78%30.20 "Hg10 mi
9:53 AM55 °FPassing clouds.7 mph83%30.22 "Hg10 mi
8:53 AM52 °FPartly sunny.7 mph93%30.22 "Hg10 mi
7:53 AM50 °FBroken clouds.5 mph96%30.20 "Hg10 mi
6:53 AM51 °FPassing clouds.5 mph96%30.19 "Hg10 mi
5:53 AM51 °FRain. Fog.5 mph92%30.19 "Hg6 mi
4:53 AM52 °FPassing clouds.14 mph50%30.14 "Hg10 mi
3:53 AM52 °FPassing clouds.3 mph50%30.09 "Hg10 mi
2:53 AM52 °FPassing clouds.5 mph50%30.09 "Hg10 mi
1:53 AM53 °FPassing clouds.7 mph48%30.10 "Hg10 mi
12:53 AM56 °FPassing clouds.5 mph46%30.09 "Hg10 mi
11:53 PM
Mon, Oct 24
56 °FPassing clouds.6 mph44%30.11 "Hg10 mi
10:53 PM60 °FPassing clouds.5 mph39%30.12 "Hg10 mi
Weather by CustomWeather, © 2016

See weather overviewHow to use our weather pages